THOR AGENA B R/B, 2174

Orbit data source: Space-Track

THOR AGENA B R/B, 2174 is space debris in SSO originally from a launch on Sun, 15 May 1966 UTC launched from the Air Force Western Test Range (AFWTR). Debris objects in space refer to the collection of defunct objects orbiting the Earth. Examples of debris include non-operational satellites, rocket bodies, and fragments generated from explosions, collisions, or faulty payload assembly.

Loading next visibility...
Identifier
2174, 1966-040B
Orbit
SSO
Country
Flag of USUS
Related business
Manufacturer
LMSC
Mission
Spacecraft
Bus & Motor
AGENA B, Unknown motor
Mass
600 kg wet, 600 kg dry
Launch date (UTC)
1966-05-15 (60 years ago)
Launch vehicle
Unknown
Launch site
Air Force Western Test Range (AFWTR)
Object type
Payload
Rocket body
Debris
Shape & HBR
Unknown
Radar Cross Section
Large (>1 m²)

Expand to show TLE details & history
Last TLE update: 13 hours ago

TLE from 13 hours ago
0 THOR AGENA B R/B
1 02174U 66040B   26150.46070839  .00000009  00000-0  10622-3 0  9994
2 02174 100.3263  76.8159 0056888  83.7690  28.4712 13.36307039926854
Epoch: 2026-05-30T11:03Z
TLE epoch observation values (Epoch: 2026-05-30T11:03:25.204Z)
Latitude
65.39471°
Longitude
-133.69765°
Altitude
1,096.791 km
Speed
7.328 km/s
True Right ascension
18h 40m 32s
True Declination
65° 16' 13"
Sunlit
Object was in daylight at epoch
Visualization orbit readout
Latitude
Unknown
Longitude
Unknown
Altitude
Unknown
Speed
Unknown
Apparent Right ascension
Unknown
Apparent Declination
Unknown
Sunlit
N/A
Visualization observer readout
Local Sidereal Time
09:31:25
Azimuth
Unknown
Elevation
Unknown
Doppler factor
Unknown
Orbital elements
Apogee altitude
1,163.078 km
Perigee altitude
1,077.762 km
Semi-major axis
7,498.557 km
Eccentricity
0.00569
Inclination
100.3263°
RAAN
76.8159°
Arg. of periapsis
83.769°
True anomaly
28.78392°
Mean anomaly
28.4712°
Eccentric anomaly
28.62736°
Mean motion
3.34254 °/min
Orbital period
107.7 mins
BSTAR
0.00010622
Loading maneuver chart data...
Computing Atmospheric mass density...
Loading historical data...
Loading historical data...
Loading historical data...
Loading historical data...
Loading historical data...
Loading historical data...
Loading historical data...

Documentation

Showing up to 5 results
|